Location: Dover
(39.1580°N, 75.5250°W)
Time: 09:58:00
(UTC-05:00)

SeaSat 1 - Visible Passes

Search period start: 22 December 2014 00:00
Search period end: 01 January 2015 00:00
Orbit: 746 x 749 km, 108.0° (Epoch: 21 December)

Date Brightness Start Highest point End Pass type
(mag) Time Alt. Az. Time Alt. Az. Time Alt. Az.
22 Dec 4.0 05:36:36 10° ESE 05:40:53 31° NE 05:45:11 10° N visible
23 Dec 5.0 04:57:26 10° ENE 04:59:47 14° NE 05:02:09 10° NNE visible
23 Dec 2.5 06:31:44 10° SSE 06:36:39 89° ENE 06:41:36 10° NNW visible
24 Dec 3.9 05:50:49 10° ESE 05:55:14 34° NE 05:59:40 10° N visible
25 Dec 5.0 05:11:22 10° E 05:14:06 15° NE 05:16:49 10° NNE visible
25 Dec 2.5 06:46:07 10° SSE 06:51:02 82° WSW 06:55:59 10° NNW visible
26 Dec 3.7 06:05:03 10° SE 06:09:35 38° ENE 06:14:08 10° N visible
27 Dec 4.9 05:25:22 10° E 05:28:24 17° NE 05:31:26 10° N visible
28 Dec 3.5 06:19:17 10° SE 06:23:55 43° ENE 06:28:34 10° NNW visible
29 Dec 4.8 05:39:24 10° E 05:42:42 18° NE 05:46:01 10° N visible
30 Dec 3.4 06:33:33 10° SE 06:38:15 48° ENE 06:43:00 10° NNW visible
31 Dec 4.7 05:53:28 10° E 05:57:00 20° NE 06:00:33 10° N visible
